Total_Precipitation_Accumulation
0.21 0.18 0.20 0.24 0.40 0.36 0.33 0.23 0.15 0.04 0.01 0.04 0.02 0.00 0.00 0.00 0.00 0.00 0.00 0.00 0.00 0.00 0.00 0.00 0.00 0.00 0.00 0.00 0.00 0.00 0.00 0.01 0.01 0.00 0.00 0.00 0.00 0.00 0.03 0.34 0.33 0.36 0.42 0.19
0.32 0.22 0.22 0.26 0.40 0.36 0.23 0.35 0.26 0.21 0.12 0.09 0.02 0.00 0.00 0.00 0.00 0.00 0.00 0.00 0.00 0.00 0.00 0.00 0.00 0.00 0.00 0.00 0.00 0.00 0.00 0.00 0.03 0.00 0.00 0.00 0.00 0.00 0.00 0.06 0.16 0.12 0.36 0.08
0.53 0.47 0.41 0.37 0.38 0.40 0.40 0.50 0.46 0.58 0.56 0.12 0.04 0.03 0.03 0.01 0.01 0.00 0.00 0.00 0.00 0.00 0.00 0.00 0.00 0.00 0.00 0.00 0.00 0.00 0.00 0.00 0.02 0.02 0.00 0.00 0.00 0.00 0.00 0.02 0.05 0.03 0.02 0.01
0.67 0.54 0.55 0.66 0.60 0.43 0.59 0.72 0.54 0.24 0.34 0.12 0.04 0.03 0.04 0.03 0.05 0.04 0.02 0.02 0.00 0.00 0.00 0.00 0.00 0.00 0.00 0.00 0.00 0.00 0.00 0.00 0.00 0.00 0.00 0.00 0.00 0.00 0.00 0.00 0.00 0.02 0.01 0.01
0.61 0.62 0.64 0.61 0.73 0.65 0.78 0.81 0.47 0.29 0.27 0.10 0.09 0.11 0.07 0.03 0.02 0.04 0.04 0.03 0.02 0.01 0.01 0.01 0.01 0.00 0.00 0.00 0.00 0.00 0.00 0.00 0.00 0.00 0.00 0.00 0.00 0.00 0.00 0.00 0.00 0.00 0.00 0.00
0.66 0.66 0.64 0.73 0.75 0.93 1.10 0.93 0.71 0.45 0.25 0.08 0.21 0.17 0.05 0.02 0.03 0.03 0.01 0.02 0.02 0.01 0.01 0.00 0.00 0.00 0.00 0.00 0.00 0.00 0.00 0.00 0.00 0.00 0.00 0.00 0.00 0.00 0.00 0.00 0.00 0.00 0.00 0.00
0.66 0.87 0.98 0.84 0.91 0.79 0.80 0.61 0.49 0.59 0.47 0.15 0.06 0.02 0.02 0.02 0.03 0.05 0.01 0.02 0.02 0.01 0.00 0.00 0.00 0.00 0.00 0.00 0.00 0.00 0.00 0.00 0.00 0.00 0.00 0.00 0.00 0.00 0.00 0.00 0.00 0.00 0.00 0.00
0.39 0.56 0.75 0.87 0.75 0.71 0.60 0.45 0.49 0.72 0.59 0.21 0.08 0.02 0.00 0.00 0.01 0.01 0.00 0.00 0.00 0.00 0.00 0.02 0.01 0.00 0.00 0.00 0.00 0.00 0.00 0.00 0.00 0.00 0.00 0.00 0.00 0.00 0.00 0.00 0.00 0.00 0.00 0.00
0.28 0.39 0.53 0.73 0.80 0.73 0.66 0.60 0.47 0.47 0.49 0.25 0.09 0.09 0.07 0.07 0.04 0.03 0.01 0.00 0.00 0.01 0.03 0.05 0.07 0.01 0.00 0.00 0.00 0.00 0.00 0.00 0.00 0.00 0.00 0.00 0.00 0.00 0.00 0.00 0.00 0.00 0.00 0.00
0.74 0.39 0.39 0.49 0.75 0.73 0.68 0.70 0.49 0.65 0.64 0.15 0.05 0.13 0.14 0.11 0.12 0.12 0.04 0.02 0.05 0.06 0.09 0.12 0.05 0.01 0.00 0.00 0.00 0.00 0.00 0.00 0.00 0.00 0.00 0.00 0.00 0.00 0.00 0.00 0.00 0.00 0.00 0.00
1.10 1.17 0.79 0.57 0.59 0.77 0.74 0.49 0.29 0.36 0.35 0.12 0.02 0.02 0.03 0.06 0.11 0.15 0.08 0.16 0.19 0.15 0.19 0.12 0.04 0.01 0.00 0.00 0.00 0.00 0.00 0.00 0.00 0.00 0.01 0.00 0.00 0.00 0.00 0.00 0.00 0.00 0.00 0.00
0.57 1.01 1.24 1.12 0.88 0.75 0.85 0.71 0.22 0.25 0.34 0.24 0.05 0.01 0.00 0.00 0.02 0.07 0.18 0.23 0.17 0.16 0.13 0.07 0.02 0.01 0.00 0.00 0.00 0.00 0.00 0.00 0.00 0.00 0.00 0.00 0.00 0.00 0.00 0.00 0.00 0.00 0.00 0.00
0.34 0.75 1.07 1.28 1.39 1.14 1.05 0.62 0.31 0.55 0.79 0.40 0.17 0.06 0.00 0.00 0.01 0.03 0.11 0.16 0.13 0.15 0.13 0.21 0.16 0.08 0.02 0.00 0.00 0.00 0.00 0.00 0.00 0.00 0.00 0.00 0.00 0.00 0.00 0.00 0.00 0.00 0.00 0.00
0.13 0.37 0.87 1.17 1.40 1.35 1.34 0.95 0.43 0.50 0.66 0.42 0.15 0.03 0.02 0.00 0.00 0.01 0.03 0.07 0.06 0.07 0.16 0.35 0.38 0.23 0.08 0.05 0.02 0.01 0.00 0.00 0.00 0.00 0.00 0.00 0.00 0.00 0.00 0.00 0.00 0.00 0.00 0.00
0.05 0.18 0.47 0.92 1.37 1.27 1.12 0.75 0.40 0.35 0.44 0.35 0.08 0.02 0.04 0.02 0.02 0.02 0.03 0.09 0.24 0.35 0.35 0.32 0.17 0.07 0.09 0.08 0.05 0.04 0.00 0.00 0.00 0.00 0.00 0.00 0.00 0.00 0.00 0.00 0.00 0.00 0.00 0.00
0.03 0.09 0.37 0.82 1.45 2.11 1.50 1.63 1.15 0.61 0.51 0.88 0.46 0.14 0.08 0.11 0.08 0.07 0.07 0.10 0.22 0.46 0.37 0.19 0.06 0.02 0.07 0.13 0.05 0.00 0.00 0.00 0.00 0.00 0.00 0.00 0.00 0.00 0.00 0.00 0.00 0.00 0.00 0.00
0.04 0.06 0.23 0.71 1.35 1.86 1.49 0.78 0.56 0.79 1.05 1.25 0.63 0.19 0.12 0.17 0.26 0.28 0.22 0.21 0.34 0.34 0.28 0.17 0.06 0.02 0.06 0.11 0.03 0.00 0.00 0.00 0.00 0.00 0.00 0.00 0.00 0.00 0.00 0.00 0.00 0.00 0.00 0.00
0.03 0.05 0.16 0.76 1.38 1.48 1.03 0.33 0.16 0.58 1.28 1.10 0.60 0.23 0.14 0.23 0.39 0.36 0.28 0.32 0.37 0.28 0.20 0.08 0.02 0.02 0.07 0.07 0.00 0.00 0.00 0.00 0.00 0.00 0.00 0.00 0.00 0.00 0.00 0.00 0.00 0.00 0.00 0.00
0.05 0.16 0.36 1.30 1.76 1.45 0.84 0.74 0.74 0.83 0.99 0.84 0.44 0.07 0.06 0.11 0.23 0.24 0.30 0.31 0.37 0.24 0.11 0.03 0.01 0.02 0.02 0.01 0.00 0.00 0.00 0.00 0.00 0.00 0.00 0.00 0.00 0.00 0.00 0.00 0.00 0.00 0.00 0.00
0.16 0.52 0.71 1.22 1.38 1.08 1.17 2.08 2.29 1.93 1.35 0.67 0.23 0.05 0.05 0.04 0.09 0.21 0.26 0.26 0.20 0.11 0.03 0.01 0.05 0.01 0.00 0.00 0.00 0.00 0.00 0.00 0.00 0.00 0.00 0.00 0.00 0.00 0.00 0.00 0.00 0.00 0.00 0.00
0.29 0.65 0.63 0.94 1.50 1.27 1.68 2.05 1.63 1.19 0.78 0.31 0.07 0.02 0.03 0.03 0.09 0.16 0.22 0.29 0.17 0.06 0.01 0.00 0.01 0.00 0.00 0.00 0.00 0.00 0.00 0.00 0.00 0.00 0.00 0.00 0.00 0.00 0.00 0.00 0.00 0.00 0.00 0.00
0.25 0.62 0.75 1.02 1.16 1.68 1.77 1.21 0.58 0.29 0.13 0.06 0.01 0.01 0.02 0.11 0.19 0.21 0.17 0.14 0.11 0.04 0.01 0.02 0.00 0.00 0.00 0.00 0.00 0.00 0.00 0.00 0.00 0.00 0.00 0.00 0.00 0.00 0.00 0.00 0.00 0.00 0.00 0.00
0.44 0.80 0.94 0.98 1.14 1.21 0.82 0.53 0.27 0.23 0.23 0.20 0.12 0.09 0.11 0.25 0.33 0.29 0.11 0.08 0.06 0.01 0.01 0.01 0.00 0.00 0.00 0.00 0.00 0.00 0.00 0.00 0.00 0.00 0.00 0.00 0.00 0.00 0.00 0.00 0.00 0.00 0.00 0.00
0.48 0.74 0.75 0.72 0.73 0.49 0.30 0.23 0.19 0.14 0.10 0.11 0.14 0.19 0.22 0.23 0.30 0.35 0.20 0.16 0.05 0.03 0.01 0.00 0.00 0.00 0.00 0.00 0.00 0.00 0.00 0.00 0.00 0.00 0.00 0.00 0.00 0.00 0.00 0.00 0.00 0.00 0.00 0.00
0.41 0.52 0.48 0.36 0.33 0.33 0.24 0.21 0.13 0.09 0.16 0.24 0.40 0.56 0.37 0.34 0.47 0.33 0.10 0.10 0.04 0.01 0.00 0.00 0.00 0.00 0.00 0.00 0.00 0.00 0.00 0.00 0.00 0.00 0.00 0.00 0.00 0.00 0.00 0.00 0.00 0.00 0.00 0.00
0.31 0.32 0.27 0.18 0.13 0.16 0.18 0.19 0.17 0.16 0.22 0.34 0.58 0.71 0.59 0.43 0.25 0.09 0.02 0.00 0.00 0.00 0.00 0.00 0.00 0.00 0.00 0.00 0.00 0.00 0.00 0.00 0.00 0.00 0.00 0.00 0.00 0.00 0.00 0.00 0.00 0.00 0.00 0.00
0.19 0.20 0.17 0.15 0.14 0.23 0.27 0.34 0.39 0.38 0.39 0.49 0.53 0.45 0.29 0.15 0.09 0.06 0.00 0.00 0.00 0.02 0.02 0.01 0.00 0.01 0.01 0.00 0.00 0.01 0.01 0.00 0.00 0.00 0.00 0.00 0.00 0.00 0.00 0.00 0.00 0.00 0.00 0.00